,,Stat6,,Stat2,,Stat8,,Stat9,,Stat10,,Wind1,,Wind1,
time,status,PA1M_AVG,status,PR1M_SUM,status,RH1M_AVG,status,SR1M_AVG,status,TA1M_AVG,status,W1dAve1m,status,W1sAve1m,
2006-10-09, 07:00:02,VALID,920.298,VALID,0,VALID,99.5056,VALID,0,VALID,20.8319,VALID,309,VALID,0.282493,
2006-10-09, 07:01:00,VALID,920.288,VALID,0,VALID,99.4471,VALID,0,VALID,20.8284,VALID,308,VALID,0.531428,
2006-10-09, 07:02:00,VALID,920.267,VALID,0,VALID,99.3823,VALID,0,VALID,20.8252,VALID,308,VALID,0.196528,
2006-10-09, 07:03:00,VALID,920.251,VALID,0,VALID,99.3517,VALID,0,VALID,20.8214,VALID,284,VALID,1.15152,
2006-10-09, 07:04:01,VALID,920.24,VALID,0,VALID,99.4547,VALID,0,VALID,20.8249,VALID,279,VALID,1.38872,
2006-10-09, 07:05:01,VALID,920.264,VALID,0,VALID,99.4662,VALID,0,VALID,20.8247,VALID,274,VALID,1.20685,
2006-10-09, 07:06:00,VALID,920.304,VALID,0,VALID,99.4535,VALID,-0.0169808,VALID,20.8405,VALID,278,VALID,1.03779,
2006-10-09, 07:07:00,VALID,920.346,VALID,0,VALID,99.4547,VALID,-0.0509425,VALID,20.8446,VALID,284,VALID,1.12221,
2006-10-09, 07:08:01,VALID,920.369,VALID,0,VALID,99.4229,VALID,-0.101885,VALID,20.8647,VALID,280,VALID,1.12038,
2006-10-09, 07:09:00,VALID,920.398,VALID,0,VALID,99.3759,VALID,-0.101885,VALID,20.8784,VALID,282,VALID,1.30233,
2006-10-09, 07:10:00,VALID,920.391,VALID,0,VALID,99.1648,VALID,-0.118866,VALID,20.8846,VALID,280,VALID,1.47802,
2006-10-09, 07:11:00,VALID,920.407,VALID,0,VALID,99.0783,VALID,-0.101885,VALID,20.8841,VALID,287,VALID,0.518601,
2006-10-09, 07:12:00,VALID,920.397,VALID,0,VALID,98.9207,VALID,-0.101885,VALID,20.8838,VALID,292,VALID,0.619318,
2006-10-09, 07:13:00,VALID,920.406,VALID,0,VALID,98.7541,VALID,-0.118866,VALID,20.8808,VALID,292,VALID,0.275254,
2006-10-09, 07:14:01,VALID,920.405,VALID,0,VALID,98.4642,VALID,-0.101885,VALID,20.8453,VALID,156,VALID,1.13881,
2006-10-09, 07:15:00,VALID,920.407,VALID,0,VALID,98.3357,VALID,-0.0849042,VALID,20.7673,VALID,188,VALID,0.664444,
2006-10-09, 07:16:00,VALID,920.409,VALID,0,VALID,98.5519,VALID,-0.118866,VALID,20.7649,VALID,199,VALID,0.0418527,
2006-10-09, 07:17:00,VALID,920.407,VALID,0,VALID,98.6981,VALID,-0.101885,VALID,20.7646,VALID,199,VALID,0,
2006-10-09, 07:18:00,VALID,920.405,VALID,0,VALID,98.7681,VALID,-0.101885,VALID,20.8039,VALID,194,VALID,0.103561,
2006-10-09, 07:19:00,VALID,920.395,VALID,0,VALID,98.7058,VALID,-0.0849042,VALID,20.8297,VALID,182,VALID,0.220274,
2006-10-09, 07:20:00,VALID,920.372,VALID,0,VALID,98.604,VALID,-0.101885,VALID,20.8289,VALID,182,VALID,0.231889,
2006-10-09, 07:21:01,VALID,920.344,VALID,0,VALID,98.4769,VALID,-0.101885,VALID,20.8001,VALID,174,VALID,0.204033,
2006-10-09, 07:22:00,VALID,920.295,VALID,0,VALID,98.5468,VALID,-0.0339617,VALID,20.7961,VALID,121,VALID,0.376524,
2006-10-09, 07:23:01,VALID,920.244,VALID,0,VALID,98.5163,VALID,0.118866,VALID,20.7935,VALID,122,VALID,0.392829,
2006-10-09, 07:24:00,VALID,920.217,VALID,0,VALID,98.3434,VALID,0.118866,VALID,20.7682,VALID,123,VALID,0.865767,
2006-10-09, 07:25:00,VALID,920.188,VALID,0,VALID,98.2734,VALID,0.135847,VALID,20.7158,VALID,98,VALID,0.686928,
2006-10-09, 07:26:01,VALID,920.152,VALID,0,VALID,98.4273,VALID,0.101885,VALID,20.7255,VALID,117,VALID,0.360973,
2006-10-09, 07:27:01,VALID,920.113,VALID,0,VALID,98.4527,VALID,0.0849042,VALID,20.726,VALID,188,VALID,0.486192,
2006-10-09, 07:28:00,VALID,920.061,VALID,0,VALID,98.571,VALID,0.152827,VALID,20.7257,VALID,190,VALID,0.275618,
2006-10-09, 07:29:01,VALID,920.016,VALID,0,VALID,98.735,VALID,0.101885,VALID,20.765,VALID,239,VALID,0.663504,
2006-10-09, 07:30:00,VALID,919.964,VALID,0,VALID,98.8227,VALID,0.135847,VALID,20.7803,VALID,244,VALID,0.41282,
2006-10-09, 07:31:00,VALID,919.937,VALID,0,VALID,98.8863,VALID,0.101885,VALID,20.8261,VALID,250,VALID,0.672877,
2006-10-09, 07:32:00,VALID,919.913,VALID,0,VALID,98.8367,VALID,0.118866,VALID,20.8357,VALID,263,VALID,0.762908,
2006-10-09, 07:33:01,VALID,919.915,VALID,0,VALID,98.8113,VALID,0.118866,VALID,20.829,VALID,263,VALID,0.912007,
2006-10-09, 07:34:00,VALID,919.902,VALID,0,VALID,98.8431,VALID,0.101885,VALID,20.8261,VALID,273,VALID,1.17351,
2006-10-09, 07:35:01,VALID,919.889,VALID,0,VALID,98.8482,VALID,0.135847,VALID,20.8169,VALID,275,VALID,1.60529,
2006-10-09, 07:36:00,VALID,919.883,VALID,0,VALID,98.8889,VALID,0.101885,VALID,20.7908,VALID,279,VALID,1.42932,
2006-10-09, 07:37:00,VALID,919.889,VALID,0,VALID,98.9372,VALID,0.0339617,VALID,20.7816,VALID,279,VALID,1.19029,
2006-10-09, 07:38:01,VALID,919.876,VALID,0,VALID,98.894,VALID,-0.0849042,VALID,20.7644,VALID,282,VALID,1.05145,
2006-10-09, 07:39:00,VALID,919.869,VALID,0,VALID,99.0326,VALID,-0.101885,VALID,20.7617,VALID,283,VALID,0.957031,
2006-10-09, 07:40:00,VALID,919.89,VALID,0,VALID,99.1356,VALID,-0.101885,VALID,20.7714,VALID,283,VALID,0.760861,
2006-10-09, 07:41:01,VALID,919.922,VALID,0,VALID,98.8164,VALID,-0.0849042,VALID,20.7485,VALID,253,VALID,0.855564,
2006-10-09, 07:42:00,VALID,919.977,VALID,0,VALID,98.8151,VALID,-0.101885,VALID,20.7361,VALID,274,VALID,0.617374,
2006-10-09, 07:43:00,VALID,920.026,VALID,0,VALID,98.8609,VALID,-0.101885,VALID,20.7229,VALID,282,VALID,0.553199,
2006-10-09, 07:44:00,VALID,920.071,VALID,0,VALID,98.8444,VALID,-0.101885,VALID,20.707,VALID,282,VALID,0.634718,
2006-10-09, 07:45:01,VALID,920.096,VALID,0,VALID,98.8291,VALID,-0.101885,VALID,20.707,VALID,278,VALID,0.878906,
2006-10-09, 07:46:00,VALID,920.107,VALID,0,VALID,98.6117,VALID,-0.118866,VALID,20.7167,VALID,284,VALID,0.700267,
2006-10-09, 07:47:01,VALID,920.106,VALID,0,VALID,98.501,VALID,-0.118866,VALID,20.7234,VALID,287,VALID,0.588663,
2006-10-09, 07:48:00,VALID,920.094,VALID,0,VALID,98.5875,VALID,-0.101885,VALID,20.7234,VALID,289,VALID,0.873728,
2006-10-09, 07:49:01,VALID,920.083,VALID,0,VALID,98.6015,VALID,-0.101885,VALID,20.7232,VALID,293,VALID,0.452553,
2006-10-09, 07:50:00,VALID,920.056,VALID,0,VALID,98.6384,VALID,-0.101885,VALID,20.7063,VALID,293,VALID,0.18064,
2006-10-09, 07:51:01,VALID,920.05,VALID,0,VALID,98.6892,VALID,-0.118866,VALID,20.7135,VALID,293,VALID,0,
2006-10-09, 07:52:01,VALID,920.042,VALID,0,VALID,98.7935,VALID,-0.0679233,VALID,20.7125,VALID,293,VALID,0.0450581,
2006-10-09, 07:53:00,VALID,920.024,VALID,0,VALID,98.7401,VALID,0,VALID,20.7122,VALID,293,VALID,0,
2006-10-09, 07:54:00,VALID,919.999,VALID,0,VALID,98.8266,VALID,0,VALID,20.7087,VALID,293,VALID,0.000190549,
2006-10-09, 07:55:01,VALID,919.992,VALID,0,VALID,98.8558,VALID,0.0169808,VALID,20.7179,VALID,293,VALID,0.0131392,
2006-10-09, 07:56:01,VALID,919.99,VALID,0,VALID,98.8673,VALID,0.0169808,VALID,20.7216,VALID,293,VALID,0,
2006-10-09, 07:57:01,VALID,919.981,VALID,0,VALID,98.8952,VALID,0,VALID,20.7281,VALID,293,VALID,0,
2006-10-09, 07:58:01,VALID,919.979,VALID,0,VALID,98.8431,VALID,0,VALID,20.7351,VALID,293,VALID,0,
2006-10-09, 07:59:01,VALID,919.979,VALID,0,VALID,98.7732,VALID,0.0339617,VALID,20.7012,VALID,293,VALID,0.0253906,
2006-10-09, 08:00:01,VALID,919.987,VALID,0,VALID,98.7782,VALID,0,VALID,20.7052,VALID,293,VALID,0.238991,
2006-10-09, 08:01:01,VALID,920.004,VALID,0,VALID,98.7757,VALID,0,VALID,20.7154,VALID,293,VALID,0.316051,
2006-10-09, 08:02:01,VALID,920.02,VALID,0,VALID,98.721,VALID,0,VALID,20.6988,VALID,293,VALID,0.619243,
2006-10-09, 08:03:00,VALID,920.033,VALID,0,VALID,98.8049,VALID,0,VALID,20.6864,VALID,293,VALID,0.340402,
2006-10-09, 08:04:01,VALID,920.036,VALID,0,VALID,98.8673,VALID,0,VALID,20.6853,VALID,293,VALID,0.263626,
2006-10-09, 08:05:01,VALID,920.042,VALID,0,VALID,98.8431,VALID,0.0169808,VALID,20.6926,VALID,293,VALID,0.0895712,
2006-10-09, 08:06:01,VALID,920.05,VALID,0,VALID,99.0402,VALID,0,VALID,20.6923,VALID,293,VALID,0,
2006-10-09, 08:07:01,VALID,920.065,VALID,0,VALID,99.0084,VALID,0,VALID,20.6982,VALID,293,VALID,0.158854,
2006-10-09, 08:08:01,VALID,920.062,VALID,0,VALID,98.8965,VALID,0,VALID,20.6891,VALID,293,VALID,0.313502,
2006-10-09, 08:09:01,VALID,920.058,VALID,0,VALID,99.0033,VALID,0,VALID,20.6821,VALID,282,VALID,0.330305,
2006-10-09, 08:10:00,VALID,920.057,VALID,0,VALID,98.8863,VALID,0,VALID,20.6563,VALID,203,VALID,0.58346,
2006-10-09, 08:11:01,VALID,920.048,VALID,0,VALID,98.9372,VALID,-0.0169808,VALID,20.6374,VALID,163,VALID,0.382241,
2006-10-09, 08:12:01,VALID,920.047,VALID,0,VALID,98.9054,VALID,0,VALID,20.6245,VALID,162,VALID,0.303416,
2006-10-09, 08:13:01,VALID,920.037,VALID,0,VALID,98.9486,VALID,0,VALID,20.6086,VALID,162,VALID,0.00372869,
2006-10-09, 08:14:01,VALID,920.025,VALID,0,VALID,99.0783,VALID,0,VALID,20.6052,VALID,162,VALID,0.00424592,
2006-10-09, 08:15:01,VALID,920.019,VALID,0,VALID,99.0758,VALID,-0.0169808,VALID,20.6086,VALID,162,VALID,0.252262,
2006-10-09, 08:16:00,VALID,920,VALID,0,VALID,99.0987,VALID,-0.0339617,VALID,20.625,VALID,162,VALID,0.115972,
2006-10-09, 08:17:01,VALID,919.987,VALID,0,VALID,99.072,VALID,0,VALID,20.6183,VALID,162,VALID,0.00595238,
2006-10-09, 08:18:01,VALID,919.975,VALID,0,VALID,99.1178,VALID,0,VALID,20.6121,VALID,162,VALID,0.14234,
2006-10-09, 08:19:01,VALID,919.98,VALID,0,VALID,99.2322,VALID,0,VALID,20.6442,VALID,164,VALID,0.381359,
2006-10-09, 08:20:01,VALID,919.974,VALID,0,VALID,98.9512,VALID,-0.0509425,VALID,20.6181,VALID,221,VALID,0.542014,
2006-10-09, 08:21:01,VALID,919.957,VALID,0,VALID,98.9715,VALID,0,VALID,20.5726,VALID,259,VALID,0.795945,
2006-10-09, 08:22:01,VALID,919.934,VALID,0,VALID,99.072,VALID,0.0169808,VALID,20.5764,VALID,263,VALID,1.05923,
2006-10-09, 08:23:01,VALID,919.896,VALID,0,VALID,99.2983,VALID,0.0169808,VALID,20.5756,VALID,271,VALID,0.869191,
2006-10-09, 08:24:01,VALID,919.861,VALID,0,VALID,99.3784,VALID,0.0339617,VALID,20.5716,VALID,273,VALID,0.867898,
2006-10-09, 08:25:01,VALID,919.823,VALID,0,VALID,99.3784,VALID,0.0509425,VALID,20.5821,VALID,273,VALID,0.361979,
2006-10-09, 08:26:01,VALID,919.786,VALID,0,VALID,99.2258,VALID,0.0169808,VALID,20.5624,VALID,273,VALID,0.112995,
2006-10-09, 08:27:01,VALID,919.731,VALID,0,VALID,99.0949,VALID,0.0339617,VALID,20.5108,VALID,273,VALID,0.131288,
2006-10-09, 08:28:01,VALID,919.686,VALID,0,VALID,99.1368,VALID,0.0339617,VALID,20.4815,VALID,258,VALID,0.375178,
2006-10-09, 08:29:01,VALID,919.646,VALID,0,VALID,99.0923,VALID,0,VALID,20.4529,VALID,192,VALID,0.614281,
2006-10-09, 08:30:01,VALID,919.611,VALID,0,VALID,99.1089,VALID,0,VALID,20.3978,VALID,145,VALID,0.675145,
2006-10-09, 08:31:01,VALID,919.574,VALID,0,VALID,99.2767,VALID,-0.0339617,VALID,20.3442,VALID,142,VALID,0.39826,
2006-10-09, 08:32:01,VALID,919.55,VALID,0,VALID,99.5043,VALID,-0.0339617,VALID,20.3348,VALID,142,VALID,0.0130814,
2006-10-09, 08:33:01,VALID,919.539,VALID,0,VALID,99.6544,VALID,-0.0849042,VALID,20.3544,VALID,158,VALID,0.129383,
2006-10-09, 08:34:01,VALID,919.531,VALID,0,VALID,99.6137,VALID,-0.0849042,VALID,20.345,VALID,265,VALID,0.993056,
2006-10-09, 08:35:01,VALID,919.53,VALID,0,VALID,99.4268,VALID,-0.0849042,VALID,20.316,VALID,266,VALID,0.835565,
2006-10-09, 08:36:00,VALID,919.547,VALID,0,VALID,99.3937,VALID,-0.0679233,VALID,20.2638,VALID,264,VALID,0.819444,
2006-10-09, 08:37:00,VALID,919.552,VALID,0,VALID,99.5196,VALID,-0.0679233,VALID,20.2184,VALID,272,VALID,1.50312,
2006-10-09, 08:38:00,VALID,919.559,VALID,0,VALID,99.5832,VALID,-0.0679233,VALID,20.1928,VALID,266,VALID,1.46758,
2006-10-09, 08:39:00,VALID,919.564,VALID,0,VALID,99.7281,VALID,-0.0509425,VALID,20.1772,VALID,267,VALID,1.29802,
2006-10-09, 08:40:00,VALID,919.575,VALID,0,VALID,99.7904,VALID,-0.101885,VALID,20.1575,VALID,254,VALID,1.18041,
2006-10-09, 08:41:00,VALID,919.585,VALID,0,VALID,99.8985,VALID,-0.0509425,VALID,20.1476,VALID,246,VALID,0.884673,
2006-10-09, 08:42:00,VALID,919.578,VALID,0,VALID,100,VALID,-0.0339617,VALID,20.1573,VALID,260,VALID,1.13754,
2006-10-09, 08:43:00,VALID,919.574,VALID,0,VALID,100,VALID,-0.101885,VALID,20.1774,VALID,252,VALID,0.768864,
2006-10-09, 08:44:00,VALID,919.569,VALID,0,VALID,100,VALID,-0.0679233,VALID,20.167,VALID,245,VALID,0.356076,
2006-10-09, 08:45:00,VALID,919.575,VALID,0,VALID,100,VALID,-0.0849042,VALID,20.1739,VALID,243,VALID,0.434451,
2006-10-09, 08:46:00,VALID,919.582,VALID,0,VALID,100,VALID,-0.0679233,VALID,20.1613,VALID,247,VALID,1.09756,
2006-10-09, 08:47:00,VALID,919.606,VALID,0,VALID,100,VALID,-0.0849042,VALID,20.161,VALID,251,VALID,0.563867,
2006-10-09, 08:48:00,VALID,919.595,VALID,0,VALID,100,VALID,-0.0509425,VALID,20.1836,VALID,253,VALID,0.535243,
2006-10-09, 08:49:00,VALID,919.61,VALID,0,VALID,100,VALID,-0.0849042,VALID,20.1998,VALID,255,VALID,0.5087,
2006-10-09, 08:50:00,VALID,919.614,VALID,0,VALID,100,VALID,-0.0679233,VALID,20.193,VALID,255,VALID,0.423921,
2006-10-09, 08:51:00,VALID,919.632,VALID,0,VALID,100,VALID,-0.0509425,VALID,20.1995,VALID,255,VALID,0.2996,
2006-10-09, 08:52:00,VALID,919.649,VALID,0,VALID,100,VALID,-0.0849042,VALID,20.2065,VALID,251,VALID,0.461458,
2006-10-09, 08:53:00,VALID,919.675,VALID,0,VALID,100,VALID,-0.0509425,VALID,20.1608,VALID,243,VALID,0.500178,
2006-10-09, 08:54:00,VALID,919.686,VALID,0,VALID,100,VALID,-0.0679233,VALID,20.1417,VALID,249,VALID,0.753089,
2006-10-09, 08:55:00,VALID,919.706,VALID,0,VALID,100,VALID,-0.0339617,VALID,20.1518,VALID,250,VALID,0.719336,
2006-10-09, 08:56:00,VALID,919.71,VALID,0,VALID,100,VALID,-0.0679233,VALID,20.1218,VALID,238,VALID,0.744318,
2006-10-09, 08:57:00,VALID,919.739,VALID,0,VALID,100,VALID,-0.101885,VALID,20.1287,VALID,245,VALID,0.436298,
2006-10-09, 08:58:00,VALID,919.733,VALID,0,VALID,100,VALID,-0.0339617,VALID,20.1255,VALID,224,VALID,0.844752,
2006-10-09, 08:59:00,VALID,919.724,VALID,0,VALID,100,VALID,-0.0849042,VALID,20.129,VALID,223,VALID,0.34003,
2006-10-09, 09:00:00,VALID,919.707,VALID,0,VALID,100,VALID,-0.0509425,VALID,20.1451,VALID,225,VALID,0.24349,
2006-10-09, 09:01:00,VALID,919.692,VALID,0,VALID,100,VALID,-0.0679233,VALID,20.164,VALID,239,VALID,0.596946,
2006-10-09, 09:02:00,VALID,919.667,VALID,0,VALID,100,VALID,-0.0509425,VALID,20.1769,VALID,250,VALID,0.621761,
2006-10-09, 09:03:00,VALID,919.647,VALID,0,VALID,100,VALID,-0.0509425,VALID,20.1903,VALID,262,VALID,0.932594,
2006-10-09, 09:04:00,VALID,919.624,VALID,0,VALID,100,VALID,-0.0849042,VALID,20.2065,VALID,252,VALID,0.959872,
2006-10-09, 09:05:00,VALID,919.584,VALID,0,VALID,100,VALID,-0.0509425,VALID,20.2161,VALID,272,VALID,1.20737,
2006-10-09, 09:06:00,VALID,919.556,VALID,0,VALID,100,VALID,-0.0679233,VALID,20.2226,VALID,275,VALID,1.02381,
2006-10-09, 09:07:00,VALID,919.527,VALID,0,VALID,100,VALID,-0.0509425,VALID,20.2387,VALID,267,VALID,0.799479,
2006-10-09, 09:08:00,VALID,919.503,VALID,0,VALID,100,VALID,0,VALID,20.2057,VALID,258,VALID,0.899528,
2006-10-09, 09:09:00,VALID,919.496,VALID,0,VALID,100,VALID,-0.0169808,VALID,20.1995,VALID,261,VALID,0.855283,
2006-10-09, 09:10:00,VALID,919.498,VALID,0,VALID,100,VALID,-0.0679233,VALID,20.203,VALID,268,VALID,0.772236,
2006-10-09, 09:11:00,VALID,919.516,VALID,0,VALID,100,VALID,-0.0169808,VALID,20.1995,VALID,261,VALID,0.787946,
2006-10-09, 09:12:00,VALID,919.517,VALID,0,VALID,100,VALID,-0.0169808,VALID,20.2062,VALID,256,VALID,0.815407,
2006-10-09, 09:13:00,VALID,919.521,VALID,0,VALID,100,VALID,-0.0339617,VALID,20.1965,VALID,262,VALID,0.549964,
2006-10-09, 09:14:00,VALID,919.533,VALID,0,VALID,100,VALID,-0.0509425,VALID,20.2065,VALID,260,VALID,0.771621,
2006-10-09, 09:15:00,VALID,919.538,VALID,0,VALID,100,VALID,0,VALID,20.2065,VALID,268,VALID,0.760719,
2006-10-09, 09:16:00,VALID,919.535,VALID,0,VALID,100,VALID,-0.0169808,VALID,20.1737,VALID,266,VALID,0.393864,
2006-10-09, 09:17:00,VALID,919.543,VALID,0,VALID,100,VALID,-0.0169808,VALID,20.1643,VALID,253,VALID,0.402902,
2006-10-09, 09:18:00,VALID,919.528,VALID,0,VALID,100,VALID,-0.0169808,VALID,20.1836,VALID,253,VALID,0.0811435,
2006-10-09, 09:19:00,VALID,919.506,VALID,0,VALID,100,VALID,-0.0169808,VALID,20.2097,VALID,253,VALID,0.0743963,
2006-10-09, 09:20:00,VALID,919.478,VALID,0,VALID,100,VALID,0,VALID,20.2218,VALID,253,VALID,0,
2006-10-09, 09:21:00,VALID,919.462,VALID,0,VALID,100,VALID,-0.0169808,VALID,20.2355,VALID,253,VALID,0.000952744,
2006-10-09, 09:22:00,VALID,919.44,VALID,0,VALID,100,VALID,-0.0509425,VALID,20.2477,VALID,253,VALID,0.0182292,
2006-10-09, 09:23:00,VALID,919.429,VALID,0,VALID,100,VALID,-0.0169808,VALID,20.2511,VALID,253,VALID,0.363735,
2006-10-09, 09:24:00,VALID,919.414,VALID,0,VALID,100,VALID,-0.0339617,VALID,20.2551,VALID,253,VALID,0.150484,
2006-10-09, 09:25:00,VALID,919.39,VALID,0,VALID,100,VALID,-0.0339617,VALID,20.2484,VALID,253,VALID,0.0574219,
2006-10-09, 09:26:00,VALID,919.366,VALID,0,VALID,100,VALID,-0.0679233,VALID,20.2675,VALID,253,VALID,0.194222,
2006-10-09, 09:27:00,VALID,919.316,VALID,0,VALID,100,VALID,0,VALID,20.2775,VALID,266,VALID,0.497142,
2006-10-09, 09:28:00,VALID,919.281,VALID,0,VALID,100,VALID,-0.0339617,VALID,20.2745,VALID,268,VALID,0.0657986,
2006-10-09, 09:29:00,VALID,919.262,VALID,0,VALID,100,VALID,-0.0339617,VALID,20.2839,VALID,268,VALID,0.0108613,
2006-10-09, 09:30:00,VALID,919.241,VALID,0,VALID,100,VALID,-0.0169808,VALID,20.2839,VALID,268,VALID,0,
2006-10-09, 09:31:00,VALID,919.238,VALID,0,VALID,100,VALID,-0.0679233,VALID,20.2775,VALID,268,VALID,0,
2006-10-09, 09:32:00,VALID,919.234,VALID,0,VALID,100,VALID,-0.0509425,VALID,20.2879,VALID,268,VALID,0,
2006-10-09, 09:33:00,VALID,919.214,VALID,0,VALID,100,VALID,-0.0849042,VALID,20.2839,VALID,268,VALID,0.0118096,
2006-10-09, 09:34:00,VALID,919.191,VALID,0,VALID,100,VALID,0,VALID,20.2872,VALID,268,VALID,0.0922619,
2006-10-09, 09:35:00,VALID,919.181,VALID,0,VALID,100,VALID,-0.0849042,VALID,20.2941,VALID,268,VALID,0,
2006-10-09, 09:36:00,VALID,919.163,VALID,0,VALID,100,VALID,-0.0679233,VALID,20.2742,VALID,268,VALID,0,
2006-10-09, 09:37:00,VALID,919.156,VALID,0,VALID,100,VALID,-0.0169808,VALID,20.2514,VALID,255,VALID,0.218936,
2006-10-09, 09:38:00,VALID,919.153,VALID,0,VALID,99.9977,VALID,0.0339617,VALID,20.1888,VALID,242,VALID,0.406883,
2006-10-09, 09:39:00,VALID,919.152,VALID,0,VALID,100,VALID,0.0849042,VALID,20.166,VALID,140,VALID,0.561773,
2006-10-09, 09:40:00,VALID,919.153,VALID,0,VALID,99.9967,VALID,0.0339617,VALID,20.1377,VALID,72,VALID,0.393787,
2006-10-09, 09:41:00,VALID,919.159,VALID,0,VALID,99.9842,VALID,0.0509425,VALID,20.0952,VALID,72,VALID,0.501488,
2006-10-09, 09:42:00,VALID,919.149,VALID,0,VALID,99.9746,VALID,0.0509425,VALID,20.0699,VALID,71,VALID,0.563953,
2006-10-09, 09:43:00,VALID,919.15,VALID,0,VALID,99.9908,VALID,0.0849042,VALID,20.0205,VALID,72,VALID,0.213542,
2006-10-09, 09:44:00,VALID,919.171,VALID,0,VALID,99.9977,VALID,0.101885,VALID,19.9857,VALID,81,VALID,0.482515,
2006-10-09, 09:45:00,VALID,919.173,VALID,0,VALID,100,VALID,0.0849042,VALID,19.9698,VALID,82,VALID,0.265807,
2006-10-09, 09:46:00,VALID,919.186,VALID,0,VALID,100,VALID,0.0509425,VALID,19.9497,VALID,82,VALID,0.347479,
2006-10-09, 09:47:00,VALID,919.19,VALID,0,VALID,100,VALID,0.0849042,VALID,19.947,VALID,82,VALID,0.398628,
2006-10-09, 09:48:00,VALID,919.19,VALID,0,VALID,100,VALID,0.0679233,VALID,19.947,VALID,87,VALID,0.633903,
2006-10-09, 09:49:00,VALID,919.197,VALID,0,VALID,100,VALID,0.0679233,VALID,19.9435,VALID,87,VALID,0.200817,
2006-10-09, 09:50:00,VALID,919.214,VALID,0,VALID,100,VALID,0.0509425,VALID,19.9698,VALID,87,VALID,0.215701,
2006-10-09, 09:51:00,VALID,919.238,VALID,0,VALID,100,VALID,0.0679233,VALID,19.9728,VALID,88,VALID,0.496466,
2006-10-09, 09:52:00,VALID,919.239,VALID,0,VALID,100,VALID,0.0339617,VALID,19.9828,VALID,89,VALID,0.297266,
2006-10-09, 09:53:00,VALID,919.238,VALID,0,VALID,100,VALID,0.0509425,VALID,19.9924,VALID,89,VALID,0.301711,
2006-10-09, 09:54:00,VALID,919.236,VALID,0,VALID,100,VALID,0.0169808,VALID,19.9924,VALID,92,VALID,0.249256,
2006-10-09, 09:55:00,VALID,919.242,VALID,0,VALID,100,VALID,0.0509425,VALID,19.9959,VALID,112,VALID,0.703125,
2006-10-09, 09:56:00,VALID,919.251,VALID,0,VALID,100,VALID,0,VALID,19.9666,VALID,139,VALID,0.470022,
2006-10-09, 09:57:00,VALID,919.235,VALID,0,VALID,100,VALID,0.0849042,VALID,19.9631,VALID,100,VALID,0.564406,
2006-10-09, 09:58:00,VALID,919.229,VALID,0,VALID,100,VALID,0.0679233,VALID,19.9567,VALID,100,VALID,0.241815,
2006-10-09, 09:59:00,VALID,919.21,VALID,0,VALID,100,VALID,0.0849042,VALID,19.9634,VALID,100,VALID,0.394245,
2006-10-09, 10:00:00,VALID,919.176,VALID,0,VALID,100,VALID,0.0509425,VALID,19.9473,VALID,100,VALID,0.59266,
2006-10-09, 10:01:00,VALID,919.166,VALID,0,VALID,100,VALID,0.0679233,VALID,19.9376,VALID,101,VALID,0.287202,
2006-10-09, 10:02:00,VALID,919.161,VALID,0,VALID,100,VALID,0.101885,VALID,19.914,VALID,92,VALID,0.415396,
2006-10-09, 10:03:00,VALID,919.174,VALID,0,VALID,100,VALID,0.0679233,VALID,19.9212,VALID,92,VALID,0.373302,
2006-10-09, 10:04:00,VALID,919.179,VALID,0,VALID,100,VALID,0.101885,VALID,19.9118,VALID,119,VALID,0.401228,
2006-10-09, 10:05:00,VALID,919.181,VALID,0,VALID,100,VALID,0.101885,VALID,19.8919,VALID,120,VALID,0.512074,
2006-10-09, 10:06:00,VALID,919.169,VALID,0,VALID,100,VALID,0.0849042,VALID,19.8825,VALID,126,VALID,0.494665,
2006-10-09, 10:07:00,VALID,919.152,VALID,0,VALID,100,VALID,0.0679233,VALID,19.8763,VALID,126,VALID,0.0948153,
2006-10-09, 10:08:00,VALID,919.132,VALID,0,VALID,100,VALID,0,VALID,19.8701,VALID,126,VALID,0.19308,
2006-10-09, 10:09:00,VALID,919.117,VALID,0,VALID,100,VALID,-0.0169808,VALID,19.8899,VALID,184,VALID,0.434956,
2006-10-09, 10:10:00,VALID,919.11,VALID,0,VALID,100,VALID,-0.0169808,VALID,19.8802,VALID,188,VALID,0.274877,
2006-10-09, 10:11:00,VALID,919.116,VALID,0,VALID,100,VALID,-0.0339617,VALID,19.8837,VALID,202,VALID,0.508984,
2006-10-09, 10:12:00,VALID,919.132,VALID,0,VALID,100,VALID,-0.0169808,VALID,19.8934,VALID,202,VALID,0.361861,
2006-10-09, 10:13:00,VALID,919.135,VALID,0,VALID,100,VALID,0,VALID,19.8904,VALID,206,VALID,0.594893,
2006-10-09, 10:14:00,VALID,919.147,VALID,0,VALID,100,VALID,-0.0339617,VALID,19.9001,VALID,228,VALID,0.504724,
2006-10-09, 10:15:00,VALID,919.156,VALID,0,VALID,100,VALID,-0.0509425,VALID,19.9294,VALID,228,VALID,0.427591,
2006-10-09, 10:16:00,VALID,919.165,VALID,0,VALID,100,VALID,-0.0339617,VALID,19.9329,VALID,228,VALID,0.309896,
2006-10-09, 10:17:00,VALID,919.17,VALID,0,VALID,100,VALID,-0.0509425,VALID,19.9391,VALID,228,VALID,0.146949,
2006-10-09, 10:18:00,VALID,919.177,VALID,0,VALID,100,VALID,-0.0339617,VALID,19.9227,VALID,228,VALID,0.309722,
2006-10-09, 10:19:00,VALID,919.187,VALID,0,VALID,100,VALID,-0.0169808,VALID,19.9162,VALID,228,VALID,0.254261,
2006-10-09, 10:20:00,VALID,919.195,VALID,0,VALID,100,VALID,0,VALID,19.9262,VALID,228,VALID,0.199219,
2006-10-09, 10:21:00,VALID,919.209,VALID,0,VALID,100,VALID,-0.0169808,VALID,19.9383,VALID,228,VALID,0.377418,
2006-10-09, 10:22:00,VALID,919.213,VALID,0,VALID,100,VALID,0,VALID,19.9378,VALID,232,VALID,0.589143,
2006-10-09, 10:23:00,VALID,919.214,VALID,0,VALID,100,VALID,-0.0169808,VALID,19.9388,VALID,259,VALID,0.664426,
2006-10-09, 10:24:00,VALID,919.226,VALID,0,VALID,100,VALID,0,VALID,19.9326,VALID,264,VALID,0.691406,
2006-10-09, 10:25:00,VALID,919.219,VALID,0,VALID,99.999,VALID,-0.0169808,VALID,19.9229,VALID,266,VALID,0.700036,
2006-10-09, 10:26:00,VALID,919.209,VALID,0,VALID,99.9517,VALID,-0.0169808,VALID,19.9095,VALID,267,VALID,0.773619,
2006-10-09, 10:27:00,VALID,919.229,VALID,0,VALID,99.896,VALID,-0.0169808,VALID,19.8867,VALID,268,VALID,0.693714,
2006-10-09, 10:28:00,VALID,919.226,VALID,0,VALID,99.924,VALID,-0.0169808,VALID,19.8614,VALID,268,VALID,0.558036,
2006-10-09, 10:29:00,VALID,919.229,VALID,0,VALID,99.9916,VALID,-0.0169808,VALID,19.8254,VALID,268,VALID,0.462462,
2006-10-09, 10:30:00,VALID,919.236,VALID,0,VALID,100,VALID,0,VALID,19.806,VALID,268,VALID,0.408249,
2006-10-09, 10:31:00,VALID,919.231,VALID,0,VALID,100,VALID,-0.0169808,VALID,19.813,VALID,268,VALID,0.375372,
2006-10-09, 10:32:00,VALID,919.227,VALID,0,VALID,100,VALID,-0.0679233,VALID,19.8068,VALID,268,VALID,0.561632,
2006-10-09, 10:33:00,VALID,919.22,VALID,0,VALID,100,VALID,-0.0339617,VALID,19.7842,VALID,268,VALID,0.600419,
2006-10-09, 10:34:00,VALID,919.219,VALID,0,VALID,100,VALID,-0.0509425,VALID,19.7546,VALID,268,VALID,0.626598,
2006-10-09, 10:35:00,VALID,919.231,VALID,0,VALID,100,VALID,-0.0509425,VALID,19.7482,VALID,268,VALID,0.651296,